This is the latest recevied weather packets stored in our database for station/object VK5TRM-14. If no packets are shown the sender has not sent any weather packets the latest 10 day(s).
| Time | Temp. | Humidity | Pressure | Rain* | Wind** | Luminosity | Snow |
|---|---|---|---|---|---|---|---|
| 1777412705 | 8.33° C | 77% | 1025.7 hPa | 0 mm | - | - | - |
| 1777411805 | 7.78° C | 72% | 1025.3 hPa | 0 mm | - | - | - |
| 1777410905 | 7.78° C | 72% | 1025.3 hPa | 0 mm | - | - | - |
| 1777410004 | 8.33° C | 73% | 1025.1 hPa | 0 mm | - | - | - |
| 1777409105 | 8.33° C | 73% | 1025.1 hPa | 0 mm | - | - | - |
| 1777408205 | 8.89° C | 72% | 1024.8 hPa | 0 mm | - | - | - |
| 1777407305 | 8.89° C | 72% | 1024.8 hPa | 0 mm | - | - | - |
| 1777406406 | 9.44° C | 69% | 1024.6 hPa | 0 mm | - | - | - |
| 1777405505 | 9.44° C | 69% | 1024.6 hPa | 0 mm | - | - | - |
| 1777404605 | 10° C | 67% | 1024.5 hPa | 0 mm | - | - | - |
| 1777403705 | 10° C | 67% | 1024.5 hPa | 0 mm | - | - | - |
| 1777402806 | 10.56° C | 69% | 1024.3 hPa | 0 mm | - | - | - |
| 1777401905 | 10.56° C | 69% | 1024.3 hPa | 0 mm | - | - | - |
| 1777401005 | 10.56° C | 69% | 1024.1 hPa | 0 mm | - | - | - |
| 1777400105 | 10.56° C | 69% | 1024.1 hPa | 0 mm | - | - | - |
| 1777399205 | 11.11° C | 65% | 1024.1 hPa | 0 mm | - | - | - |
| 1777398305 | 11.11° C | 65% | 1024.1 hPa | 0 mm | - | - | - |
| 1777397405 | 11.11° C | 64% | 1024.1 hPa | 0 mm | - | - | - |
| 1777396505 | 11.11° C | 64% | 1024.1 hPa | 0 mm | - | - | - |
| 1777395605 | 11.11° C | 64% | 1024.1 hPa | 0 mm | - | - | - |
| 1777394705 | 11.11° C | 64% | 1024.1 hPa | 0 mm | - | - | - |
| 1777393805 | 10.56° C | 62% | 1024 hPa | 0 mm | - | - | - |
| 1777392905 | 10.56° C | 62% | 1024 hPa | 0 mm | - | - | - |
| 1777392005 | 11.67° C | 59% | 1023.9 hPa | 0 mm | - | - | - |
| 1777391105 | 11.67° C | 59% | 1023.9 hPa | 0 mm | - | - | - |
* Rain since midnight (hover to see other rain measurements)
** Current wind speed in m/s (hover to see current wind gust speed)